CZ-6A DEB, 56267

Orbit data source: Space-Track

CZ-6A DEB, 56267 is space debris in SSO originally from a launch on Fri, 11 Nov 2022 UTC launched from the Taiyaun Space Center, China (TSC). Debris objects in space refer to the collection of defunct objects orbiting the Earth. Examples of debris include non-operational satellites, rocket bodies, and fragments generated from explosions, collisions, or faulty payload assembly.

Loading next visibility...
Identifier
56267, 2022-151ACK
Orbit
SSO
Country
Flag of CNCN / PRC
Related business
Manufacturer
SAST
Mission
Spacecraft
Bus & Motor
Unknown
Mass
Unknown
Launch date (UTC)
2022-11-11 (3 years ago)
Launch vehicle
Unknown
Launch site
Taiyaun Space Center, China (TSC)
Object type
Payload
Rocket body
Debris
Shape & HBR
Unknown shape, 0.1 m
Radar Cross Section
Small (<0.1 m²)

Expand to show TLE details & history
Last TLE update: 6 days ago

TLE from 6 days ago
0 CZ-6A DEB
1 56267U 22151ACK 25344.90965161  .00058755  00000-0  68047-2 0  9999
2 56267  98.6415  48.3822 0059083 110.0485 250.7100 14.83951646151090
Epoch: 2025-12-10T21:49Z
TLE epoch observation values (Epoch: 2025-12-10T21:49:53.899Z)
Latitude
-0.00001°
Longitude
1.03441°
Altitude
633.755 km
Speed
7.534 km/s
True Right ascension
03h 13m 31s
True Declination
0° 00' 00"
Sunlit
Object was in full shadow at epoch
Visualization orbit readout
Latitude
Unknown
Longitude
Unknown
Altitude
Unknown
Speed
Unknown
Apparent Right ascension
Unknown
Apparent Declination
Unknown
Sunlit
N/A
Visualization observer readout
Local Sidereal Time
11:31:03
Azimuth
Unknown
Elevation
Unknown
Doppler factor
Unknown
Orbital elements
Apogee altitude
655.26 km
Perigee altitude
572.637 km
Semi-major axis
6,992.086 km
Eccentricity
0.00591
Inclination
98.6415°
RAAN
48.3822°
Arg. of periapsis
110.0485°
True anomaly
250.07254°
Mean anomaly
250.71°
Eccentric anomaly
250.39111°
Mean motion
3.71221 °/min
Orbital period
96.98 mins
BSTAR
0.0068047
Loading maneuver chart data...
Computing Atmospheric mass density...
Loading historical data...
Loading historical data...
Loading historical data...
Loading historical data...
Loading historical data...
Loading historical data...
Loading historical data...

Documentation

Showing up to 5 results
|